Overview Statistics Trail Chart Weather Telemetry Raw packets
 

This is the latest recevied weather packets stored in our database for station/object K7LDN-13. If no packets are shown the sender has not sent any weather packets the latest 10 day(s).

<< 1 2 3 4 >>
Time Temp. Humidity Pressure Rain* Wind** Luminosity Snow
1788609710 20.56° C 31% 1019.5 hPa 0 mm - 0 W/m² -
1788609404 20.56° C 32% 1019.8 hPa 0 mm - 0 W/m² -
1788609099 20.56° C 32% 1019.6 hPa 0 mm - 0 W/m² -
1788608799 20.56° C 34% 1019.6 hPa 0 mm - 0 W/m² -
1788608497 20.56° C 35% 1019.7 hPa 0 mm - 0 W/m² -
1788608192 20° C 37% 1019.7 hPa 0 mm - 0 W/m² -
1788607887 20° C 37% 1020.1 hPa 0 mm - 0 W/m² -
1788607581 20° C 38% 1019.6 hPa 0 mm - 0 W/m² -
1788607278 20.56° C 37% 1019.6 hPa 0 mm - 0 W/m² -
1788606972 20.56° C 37% 1019.6 hPa 0 mm - 0 W/m² -
1788606671 20.56° C 37% 1019.6 hPa 0 mm - 0 W/m² -
1788606371 20.56° C 36% 1019.7 hPa 0 mm - 0 W/m² -
1788606079 20.56° C 36% 1019.7 hPa 0 mm - 0 W/m² -
1788605761 20.56° C 37% 1019.7 hPa 0 mm - 0 W/m² -
1788605460 20.56° C 37% 1019.6 hPa 0 mm - 0 W/m² -
1788605156 20.56° C 38% 1019.5 hPa 0 mm - 0 W/m² -
1788604855 20.56° C 37% 1019.6 hPa 0 mm - 0 W/m² -
1788604551 21.11° C 37% 1019.4 hPa 0 mm - 0 W/m² -
1788604247 21.11° C 37% 1019.6 hPa 0 mm - 0 W/m² -
1788603942 21.11° C 37% 1019.5 hPa 0 mm - 0 W/m² -
1788603639 21.11° C 37% 1019.4 hPa 0 mm - 0 W/m² -
1788603337 21.67° C 37% 1019.4 hPa 0 mm - 0 W/m² -
1788603049 21.11° C 38% 1019.5 hPa 0 mm - 0 W/m² -
1788602732 21.11° C 38% 1019.5 hPa 0 mm - 0 W/m² -
1788602431 21.11° C 39% 1019.5 hPa 0 mm - 0 W/m² -

* Rain latest hour (hover to see other rain measurements)
** Current wind speed in m/s (hover to see current wind gust speed)